TimeCDT,TemperatureF,Dew PointF,Humidity,Sea Level PressureIn,VisibilityMPH,Wind Direction,Wind SpeedMPH,Gust SpeedMPH,PrecipitationIn,Events,Conditions,WindDirDegrees,DateUTC
12:15 AM,41.0,32.0,70,30.01,10.0,East,4.6,-,N/A,,Clear,100,2013-03-12 05:15:00
12:35 AM,41.0,32.0,70,30.01,10.0,ESE,4.6,-,N/A,,Clear,110,2013-03-12 05:35:00
12:55 AM,41.0,32.0,70,30.02,10.0,ESE,4.6,-,N/A,,Clear,120,2013-03-12 05:55:00
1:15 AM,41.0,32.0,70,30.02,10.0,SE,5.8,-,N/A,,Clear,140,2013-03-12 06:15:00
1:35 AM,41.0,32.0,70,30.02,10.0,ESE,6.9,-,N/A,,Clear,110,2013-03-12 06:35:00
1:55 AM,41.0,32.0,70,30.03,10.0,ESE,5.8,-,N/A,,Clear,110,2013-03-12 06:55:00
2:15 AM,41.0,32.0,70,30.04,10.0,ESE,5.8,-,N/A,,Clear,120,2013-03-12 07:15:00
2:55 AM,41.0,32.0,70,30.04,10.0,East,6.9,-,N/A,,Clear,100,2013-03-12 07:55:00
3:15 AM,39.2,30.2,70,30.04,10.0,East,4.6,-,N/A,,Clear,100,2013-03-12 08:15:00
3:35 AM,39.2,30.2,70,30.04,10.0,East,8.1,-,N/A,,Clear,80,2013-03-12 08:35:00
3:55 AM,41.0,30.2,65,30.04,10.0,East,6.9,-,N/A,,Clear,80,2013-03-12 08:55:00
4:15 AM,41.0,30.2,65,30.03,10.0,East,6.9,-,N/A,,Clear,80,2013-03-12 09:15:00
4:35 AM,41.0,30.2,65,30.04,10.0,East,6.9,-,N/A,,Clear,90,2013-03-12 09:35:00
4:55 AM,41.0,28.4,61,30.04,10.0,East,5.8,-,N/A,,Clear,80,2013-03-12 09:55:00
5:15 AM,41.0,28.4,61,30.05,10.0,East,5.8,-,N/A,,Clear,80,2013-03-12 10:15:00
5:35 AM,41.0,28.4,61,30.06,10.0,East,6.9,-,N/A,,Clear,80,2013-03-12 10:35:00
5:55 AM,41.0,28.4,61,30.07,10.0,East,10.4,-,N/A,,Clear,80,2013-03-12 10:55:00
6:15 AM,41.0,28.4,61,30.09,10.0,ENE,6.9,-,N/A,,Clear,70,2013-03-12 11:15:00
6:35 AM,39.2,28.4,65,30.09,10.0,ENE,8.1,-,N/A,,Clear,60,2013-03-12 11:35:00
6:55 AM,41.0,28.4,61,30.09,10.0,ENE,10.4,-,N/A,,Clear,60,2013-03-12 11:55:00
7:15 AM,41.0,28.4,61,30.11,10.0,ENE,6.9,-,N/A,,Clear,70,2013-03-12 12:15:00
7:35 AM,41.0,28.4,61,30.11,10.0,ENE,8.1,-,N/A,,Clear,70,2013-03-12 12:35:00
7:55 AM,41.0,28.4,61,30.12,10.0,East,5.8,-,N/A,,Clear,100,2013-03-12 12:55:00
8:15 AM,41.0,28.4,61,30.14,10.0,East,4.6,-,N/A,,Clear,100,2013-03-12 13:15:00
8:35 AM,42.8,28.4,57,30.15,10.0,East,6.9,-,N/A,,Clear,80,2013-03-12 13:35:00
8:55 AM,44.6,28.4,53,30.18,10.0,NE,9.2,-,N/A,,Clear,50,2013-03-12 13:55:00
9:15 AM,44.6,28.4,53,30.18,10.0,East,9.2,-,N/A,,Clear,80,2013-03-12 14:15:00
9:35 AM,48.2,28.4,46,30.19,10.0,East,9.2,-,N/A,,Clear,90,2013-03-12 14:35:00
9:55 AM,50.0,28.4,43,30.20,10.0,ENE,12.7,-,N/A,,Clear,70,2013-03-12 14:55:00
10:15 AM,51.8,30.2,44,30.21,10.0,NE,10.4,-,N/A,,Clear,50,2013-03-12 15:15:00
10:35 AM,51.8,26.6,38,30.23,10.0,ENE,13.8,19.6,N/A,,Clear,60,2013-03-12 15:35:00
10:55 AM,51.8,26.6,38,30.24,10.0,ENE,13.8,20.7,N/A,,Clear,70,2013-03-12 15:55:00
11:15 AM,53.6,26.6,35,30.24,10.0,East,15.0,-,N/A,,Clear,80,2013-03-12 16:15:00
11:35 AM,53.6,26.6,35,30.24,10.0,East,12.7,19.6,N/A,,Clear,80,2013-03-12 16:35:00
11:55 AM,53.6,28.4,38,30.24,10.0,East,9.2,-,N/A,,Clear,80,2013-03-12 16:55:00
12:15 PM,55.4,28.4,36,30.24,10.0,East,11.5,-,N/A,,Clear,80,2013-03-12 17:15:00
12:35 PM,55.4,30.2,38,30.25,10.0,East,11.5,-,N/A,,Clear,100,2013-03-12 17:35:00
12:55 PM,57.2,32.0,38,30.25,10.0,ENE,10.4,-,N/A,,Clear,70,2013-03-12 17:55:00
1:15 PM,59.0,32.0,36,30.24,10.0,East,11.5,17.3,N/A,,Clear,90,2013-03-12 18:15:00
1:35 PM,59.0,32.0,36,30.24,10.0,East,11.5,17.3,N/A,,Clear,90,2013-03-12 18:35:00
1:55 PM,60.8,33.8,36,30.24,10.0,ENE,12.7,19.6,N/A,,Clear,70,2013-03-12 18:55:00
2:15 PM,60.8,33.8,36,30.24,10.0,NNE,15.0,-,N/A,,Clear,30,2013-03-12 19:15:00
2:35 PM,59.0,33.8,39,30.24,10.0,NE,9.2,17.3,N/A,,Clear,40,2013-03-12 19:35:00
2:55 PM,59.0,33.8,39,30.24,10.0,NE,12.7,16.1,N/A,,Clear,40,2013-03-12 19:55:00
3:15 PM,59.0,33.8,39,30.24,10.0,NE,11.5,17.3,N/A,,Clear,40,2013-03-12 20:15:00
3:35 PM,59.0,33.8,39,30.23,10.0,NNE,9.2,-,N/A,,Clear,20,2013-03-12 20:35:00
3:55 PM,60.8,33.8,36,30.23,10.0,ENE,5.8,-,N/A,,Clear,60,2013-03-12 20:55:00
4:15 PM,59.0,33.8,39,30.23,10.0,NNE,6.9,-,N/A,,Clear,30,2013-03-12 21:15:00
4:35 PM,59.0,35.6,42,30.23,10.0,NNE,6.9,-,N/A,,Clear,30,2013-03-12 21:35:00
4:55 PM,60.8,35.6,39,30.23,10.0,North,5.8,-,N/A,,Clear,360,2013-03-12 21:55:00
5:15 PM,60.8,35.6,39,30.23,10.0,NNE,6.9,-,N/A,,Clear,30,2013-03-12 22:15:00
5:35 PM,60.8,35.6,39,30.24,10.0,NNE,10.4,-,N/A,,Clear,30,2013-03-12 22:35:00
5:55 PM,60.8,35.6,39,30.24,10.0,North,5.8,-,N/A,,Clear,360,2013-03-12 22:55:00
6:15 PM,59.0,35.6,42,30.24,10.0,North,6.9,-,N/A,,Clear,350,2013-03-12 23:15:00
6:35 PM,59.0,37.4,45,30.25,10.0,North,6.9,-,N/A,,Clear,360,2013-03-12 23:35:00
6:55 PM,57.2,37.4,48,30.25,10.0,North,9.2,-,N/A,,Clear,350,2013-03-12 23:55:00
7:15 PM,55.4,37.4,51,30.26,10.0,North,10.4,-,N/A,,Clear,10,2013-03-13 00:15:00
7:35 PM,55.4,37.4,51,30.27,10.0,North,5.8,-,N/A,,Clear,360,2013-03-13 00:35:00
7:55 PM,53.6,37.4,54,30.28,10.0,North,8.1,-,N/A,,Clear,360,2013-03-13 00:55:00
8:15 PM,51.8,37.4,58,30.29,10.0,North,5.8,-,N/A,,Clear,360,2013-03-13 01:15:00
8:35 PM,51.8,37.4,58,30.30,10.0,North,6.9,-,N/A,,Clear,360,2013-03-13 01:35:00
8:55 PM,51.8,37.4,58,30.31,10.0,North,5.8,-,N/A,,Clear,360,2013-03-13 01:55:00
9:15 PM,51.8,37.4,58,30.31,10.0,North,8.1,-,N/A,,Clear,10,2013-03-13 02:15:00
9:35 PM,50.0,35.6,58,30.32,10.0,NNE,6.9,-,N/A,,Clear,30,2013-03-13 02:35:00
9:55 PM,48.2,35.6,62,30.32,10.0,NNE,5.8,-,N/A,,Clear,20,2013-03-13 02:55:00
10:15 PM,48.2,35.6,62,30.33,10.0,NNE,6.9,-,N/A,,Clear,20,2013-03-13 03:15:00
10:35 PM,50.0,35.6,58,30.33,10.0,NNE,8.1,-,N/A,,Clear,20,2013-03-13 03:35:00
10:55 PM,48.2,33.8,58,30.33,10.0,NNE,5.8,-,N/A,,Clear,30,2013-03-13 03:55:00
11:15 PM,46.4,33.8,62,30.34,10.0,NE,5.8,-,N/A,,Clear,40,2013-03-13 04:15:00
11:35 PM,46.4,33.8,62,30.34,10.0,NE,6.9,-,N/A,,Clear,40,2013-03-13 04:35:00
11:55 PM,46.4,33.8,62,30.34,10.0,NE,3.5,-,N/A,,Clear,50,2013-03-13 04:55:00